This is the latest recevied weather packets stored in our database for station/object N1YZ. If no packets are shown the sender has not sent any weather packets the latest 10 day(s).
| Time | Temp. | Humidity | Pressure | Rain* | Wind** | Luminosity | Snow |
|---|---|---|---|---|---|---|---|
| 1777601829 | 15.56° C | 73% | 1033.2 hPa | 0 mm | - | 0 W/m² | - |
| 1777601524 | 15.56° C | 74% | 1033.3 hPa | 0 mm | - | 0 W/m² | - |
| 1777601219 | 15.56° C | 72% | 1032.9 hPa | 0 mm | - | 0 W/m² | - |
| 1777600917 | 15.56° C | 72% | 1032.8 hPa | 0 mm | - | 0 W/m² | - |
| 1777600612 | 15.56° C | 73% | 1033 hPa | 0 mm | - | 0 W/m² | - |
| 1777600309 | 15.56° C | 72% | 1032.9 hPa | 0 mm | - | 0 W/m² | - |
| 1777600005 | 15.56° C | 72% | 1033.1 hPa | 0 mm | - | 0 W/m² | - |
| 1777599701 | 15.56° C | 73% | 1033.1 hPa | 0 mm | - | 0 W/m² | - |
| 1777599397 | 15.56° C | 73% | 1032.9 hPa | 0 mm | - | 0 W/m² | - |
| 1777599094 | 15.56° C | 73% | 1032.9 hPa | 0 mm | - | 0 W/m² | - |
| 1777598793 | 15.56° C | 72% | 1032.8 hPa | 0 mm | - | 0 W/m² | - |
| 1777598486 | 15.56° C | 72% | 1032.8 hPa | 0 mm | - | 0 W/m² | - |
| 1777598186 | 15.56° C | 72% | 1032.6 hPa | 0 mm | - | 0 W/m² | - |
| 1777597880 | 15.56° C | 72% | 1032.7 hPa | 0 mm | - | 0 W/m² | - |
| 1777597575 | 15.56° C | 73% | 1032.7 hPa | 0 mm | - | 0 W/m² | - |
| 1777597271 | 16.11° C | 72% | 1032.6 hPa | 0 mm | - | 0 W/m² | - |
| 1777596966 | 16.11° C | 71% | 1032.7 hPa | 0 mm | - | 0 W/m² | - |
| 1777596663 | 16.67° C | 72% | 1032.8 hPa | 0 mm | - | 0 W/m² | - |
| 1777596360 | 16.67° C | 71% | 1032.8 hPa | 0 mm | - | 0 W/m² | - |
| 1777596058 | 16.67° C | 73% | 1032.8 hPa | 0 mm | - | 0 W/m² | - |
| 1777595757 | 16.67° C | 72% | 1032.6 hPa | 0 mm | - | 0 W/m² | - |
| 1777595453 | 16.11° C | 74% | 1032.6 hPa | 0 mm | - | 1 W/m² | - |
| 1777595149 | 16.11° C | 76% | 1032.8 hPa | 0 mm | - | 1 W/m² | - |
| 1777594846 | 16.67° C | 77% | 1032.6 hPa | 0 mm | - | 2 W/m² | - |
| 1777594542 | 16.67° C | 74% | 1032.5 hPa | 0 mm | - | 3 W/m² | - |
* Rain latest hour (hover to see other rain measurements)
** Current wind speed in m/s (hover to see current wind gust speed)